| time (UTC) | temp F | wind direction | speed knots | gust knots | rain 1hr in | rain 24hr in | rain mn in | humidity % | barometer mb |
| 20260507213527 | 59 | 184 | 0.9 | 0.9 | 0.00 | 0.00 | 0.00 | 43 | 997.3 |
| 20260507213025 | 61 | 62 | 3.5 | 4.3 | 0.00 | 0.00 | 0.00 | 40 | 997.5 |
| 20260507212520 | 61 | 250 | 2.6 | 4.3 | 0.00 | 0.00 | 0.00 | 42 | 997.2 |
| 20260507212017 | 62 | 237 | 1.7 | 1.7 | 0.00 | 0.00 | 0.00 | 42 | 997.3 |
| 20260507211514 | 61 | 169 | 1.7 | 1.7 | 0.00 | 0.00 | 0.00 | 39 | 997.2 |
| 20260507211010 | 62 | 20 | 1.7 | 1.7 | 0.00 | 0.00 | 0.00 | 40 | 997.4 |
| 20260507210508 | 62 | 325 | 1.7 | 1.7 | 0.00 | 0.00 | 0.00 | 40 | 997.3 |
| 20260507210005 | 62 | 175 | 0.0 | 0.0 | 0.00 | 0.00 | 0.00 | 38 | 997.2 |
| 20260507205501 | 62 | 153 | 2.6 | 4.3 | 0.00 | 0.00 | 0.00 | 41 | 997.5 |
| 20260507204957 | 62 | 205 | 0.9 | 1.7 | 0.00 | 0.00 | 0.00 | 40 | 997.3 |
| 20260507204453 | 62 | 130 | 1.7 | 2.6 | 0.00 | 0.00 | 0.00 | 40 | 997.3 |
| 20260507203951 | 62 | 186 | 0.0 | 0.9 | 0.00 | 0.00 | 0.00 | 43 | 997.1 |
| 20260507203449 | 60 | 160 | 1.7 | 1.7 | 0.00 | 0.00 | 0.00 | 45 | 997.5 |
| 20260507202945 | 61 | 44 | 2.6 | 4.3 | 0.00 | 0.00 | 0.00 | 39 | 997.2 |
| 20260507202442 | 60 | 161 | 1.7 | 1.7 | 0.00 | 0.00 | 0.00 | 41 | 997.3 |
| 20260507201938 | 61 | 54 | 3.5 | 5.2 | 0.00 | 0.00 | 0.00 | 43 | 997.1 |
| 20260507201433 | 60 | 278 | 2.6 | 2.6 | 0.00 | 0.00 | 0.00 | 41 | 997.3 |
| 20260507200930 | 62 | 178 | 2.6 | 2.6 | 0.00 | 0.00 | 0.00 | 41 | 997.0 |
| 20260507200425 | 60 | 188 | 0.9 | 1.7 | 0.00 | 0.00 | 0.00 | 45 | 997.2 |
| 20260507195921 | 59 | 47 | 6.1 | 6.1 | 0.00 | 0.00 | 0.00 | 40 | 997.3 |
| 20260507195420 | 62 | 45 | 3.5 | 4.3 | 0.00 | 0.00 | 0.00 | 40 | 997.4 |
| 20260507194916 | 60 | 263 | 1.7 | 1.7 | 0.00 | 0.00 | 0.00 | 43 | 997.3 |
| 20260507194413 | 59 | 116 | 2.6 | 2.6 | 0.00 | 0.00 | 0.00 | 42 | 997.5 |
| 20260507193909 | 61 | 54 | 1.7 | 2.6 | 0.00 | 0.00 | 0.00 | 41 | 997.3 |
| 20260507193406 | 61 | 198 | 0.0 | 0.9 | 0.00 | 0.00 | 0.00 | 38 | 997.5 |
| 20260507192903 | 60 | 273 | 3.5 | 4.3 | 0.00 | 0.00 | 0.00 | 41 | 997.5 |
| 20260507192359 | 61 | 229 | 2.6 | 2.6 | 0.00 | 0.00 | 0.00 | 44 | 997.6 |
| 20260507191855 | 61 | 161 | 1.7 | 1.7 | 0.00 | 0.00 | 0.00 | 42 | 997.6 |
| 20260507191352 | 60 | 194 | 0.0 | 0.0 | 0.00 | 0.00 | 0.00 | 41 | 997.5 |
| 20260507190849 | 61 | 74 | 5.2 | 7.8 | 0.00 | 0.00 | 0.00 | 41 | 997.6 |
| 20260507190347 | 61 | 55 | 2.6 | 2.6 | 0.00 | 0.00 | 0.00 | 42 | 997.5 |
| 20260507185845 | 60 | 247 | 2.6 | 5.2 | 0.00 | 0.00 | 0.00 | 43 | 997.7 |
| 20260507185342 | 60 | 304 | 3.5 | 5.2 | 0.00 | 0.00 | 0.00 | 48 | 997.5 |
| 20260507184839 | 60 | 50 | 4.3 | 7.0 | 0.00 | 0.00 | 0.00 | 40 | 997.5 |
| 20260507184337 | 59 | 74 | 2.6 | 2.6 | 0.00 | 0.00 | 0.00 | 43 | 997.7 |
| 20260507183833 | 59 | 117 | 2.6 | 2.6 | 0.00 | 0.00 | 0.00 | 43 | 997.7 |
| 20260507183331 | 60 | 26 | 2.6 | 2.6 | 0.00 | 0.00 | 0.00 | 41 | 997.7 |
| 20260507182828 | 59 | 210 | 2.6 | 2.6 | 0.00 | 0.00 | 0.00 | 44 | 997.5 |
| 20260507182324 | 59 | 29 | 3.5 | 4.3 | 0.00 | 0.00 | 0.00 | 40 | 997.6 |
| 20260507181820 | 59 | 93 | 2.6 | 2.6 | 0.00 | 0.00 | 0.00 | 43 | 997.7 |
| 20260507181316 | 59 | 62 | 0.9 | 1.7 | 0.00 | 0.00 | 0.00 | 43 | 997.7 |
| 20260507180813 | 59 | 83 | 5.2 | 7.0 | 0.00 | 0.00 | 0.00 | 42 | 997.8 |
| 20260507180310 | 59 | 119 | 0.9 | 0.9 | 0.00 | 0.00 | 0.00 | 51 | 997.7 |
| 20260507175806 | 59 | 72 | 4.3 | 7.0 | 0.00 | 0.00 | 0.00 | 43 | 997.8 |
| 20260507175306 | 59 | 171 | 0.9 | 0.9 | 0.00 | 0.00 | 0.00 | 47 | 997.9 |
| 20260507174800 | 59 | 44 | 6.1 | 6.1 | 0.00 | 0.00 | 0.00 | 41 | 998.2 |
| 20260507174258 | 59 | 36 | 4.3 | 6.1 | 0.00 | 0.00 | 0.00 | 45 | 998.3 |
| 20260507173755 | 58 | 135 | 1.7 | 2.6 | 0.00 | 0.00 | 0.00 | 43 | 998.2 |
| 20260507173252 | 58 | 40 | 2.6 | 2.6 | 0.00 | 0.00 | 0.00 | 44 | 998.3 |
| 20260507172748 | 59 | 31 | 2.6 | 4.3 | 0.00 | 0.00 | 0.00 | 44 | 998.3 |
| 20260507172246 | 59 | 190 | 0.9 | 1.7 | 0.00 | 0.00 | 0.00 | 45 | 998.5 |
| 20260507171741 | 59 | 124 | 1.7 | 2.6 | 0.00 | 0.00 | 0.00 | 43 | 998.6 |
| 20260507171238 | 58 | 74 | 3.5 | 4.3 | 0.00 | 0.00 | 0.00 | 49 | 998.5 |
| 20260507170735 | 57 | 64 | 0.9 | 0.9 | 0.00 | 0.00 | 0.00 | 44 | 998.5 |
| 20260507170232 | 58 | 268 | 3.5 | 4.3 | 0.00 | 0.00 | 0.00 | 44 | 998.5 |
| 20260507165727 | 57 | 251 | 1.7 | 1.7 | 0.00 | 0.00 | 0.00 | 48 | 998.8 |
| 20260507165224 | 58 | 222 | 0.9 | 1.7 | 0.00 | 0.00 | 0.00 | 46 | 998.7 |
| 20260507164720 | 57 | 182 | 1.7 | 2.6 | 0.00 | 0.00 | 0.00 | 42 | 998.6 |
| 20260507164217 | 58 | 194 | 1.7 | 2.6 | 0.00 | 0.00 | 0.00 | 47 | 999.0 |
| 20260507163714 | 57 | 202 | 2.6 | 4.3 | 0.00 | 0.00 | 0.00 | 49 | 998.8 |
| 20260507163212 | 57 | 76 | 7.8 | 11.3 | 0.00 | 0.00 | 0.00 | 42 | 998.9 |
| 20260507162708 | 57 | 53 | 0.9 | 1.7 | 0.00 | 0.00 | 0.00 | 45 | 998.8 |
| 20260507162204 | 57 | 175 | 1.7 | 2.6 | 0.00 | 0.00 | 0.00 | 44 | 998.9 |
| 20260507161700 | 57 | 294 | 3.5 | 4.3 | 0.00 | 0.00 | 0.00 | 46 | 998.9 |
| 20260507161157 | 56 | 358 | 3.5 | 4.3 | 0.00 | 0.00 | 0.00 | 45 | 998.9 |
| 20260507160653 | 56 | 41 | 4.3 | 4.3 | 0.00 | 0.00 | 0.00 | 43 | 998.9 |
| 20260507160150 | 56 | 127 | 0.9 | 1.7 | 0.00 | 0.00 | 0.00 | 46 | 998.9 |
| 20260507155646 | 55 | 357 | 1.7 | 1.7 | 0.00 | 0.00 | 0.00 | 47 | 998.9 |
| 20260507155142 | 55 | 224 | 1.7 | 2.6 | 0.00 | 0.00 | 0.00 | 46 | 999.0 |
| 20260507154639 | 55 | 182 | 1.7 | 2.6 | 0.00 | 0.00 | 0.00 | 48 | 999.2 |
| 20260507154137 | 55 | 271 | 2.6 | 2.6 | 0.00 | 0.00 | 0.00 | 47 | 998.9 |
| 20260507153633 | 56 | 86 | 1.7 | 1.7 | 0.00 | 0.00 | 0.00 | 47 | 998.9 |
| 20260507153130 | 56 | 17 | 2.6 | 2.6 | 0.00 | 0.00 | 0.00 | 47 | 998.9 |
| 20260507152626 | 55 | 107 | 1.7 | 1.7 | 0.00 | 0.00 | 0.00 | 48 | 998.7 |
| 20260507152122 | 55 | 98 | 2.6 | 2.6 | 0.00 | 0.00 | 0.00 | 47 | 998.8 |
| 20260507151618 | 55 | 139 | 3.5 | 4.3 | 0.00 | 0.00 | 0.00 | 47 | 998.9 |
| 20260507151115 | 55 | 276 | 1.7 | 2.6 | 0.00 | 0.00 | 0.00 | 46 | 998.7 |
| 20260507150612 | 53 | 230 | 0.9 | 1.7 | 0.00 | 0.00 | 0.00 | 50 | 998.7 |
| 20260507150109 | 53 | 56 | 6.1 | 7.0 | 0.00 | 0.00 | 0.00 | 48 | 998.6 |
| 20260507145604 | 54 | 35 | 4.3 | 6.1 | 0.00 | 0.00 | 0.00 | 49 | 998.8 |
| 20260507145102 | 55 | 78 | 2.6 | 2.6 | 0.00 | 0.00 | 0.00 | 49 | 999.0 |
| 20260507144558 | 54 | 61 | 3.5 | 5.2 | 0.00 | 0.00 | 0.00 | 49 | 998.9 |
| 20260507144056 | 53 | 30 | 3.5 | 5.2 | 0.00 | 0.00 | 0.00 | 49 | 998.9 |
| 20260507143552 | 52 | 344 | 3.5 | 4.3 | 0.00 | 0.00 | 0.00 | 48 | 999.1 |
| 20260507143050 | 53 | 85 | 1.7 | 1.7 | 0.00 | 0.00 | 0.00 | 52 | 998.9 |
| 20260507142550 | 53 | 199 | 0.9 | 0.9 | 0.00 | 0.00 | 0.00 | 49 | 999.0 |
| 20260507142047 | 54 | 38 | 2.6 | 6.1 | 0.00 | 0.00 | 0.00 | 47 | 998.9 |
| 20260507141543 | 53 | 99 | 0.9 | 1.7 | 0.00 | 0.00 | 0.00 | 49 | 998.9 |
| 20260507141040 | 53 | 153 | 2.6 | 4.3 | 0.00 | 0.00 | 0.00 | 48 | 998.9 |
| 20260507140537 | 52 | 171 | 1.7 | 2.6 | 0.00 | 0.00 | 0.00 | 50 | 998.9 |
| 20260507140035 | 53 | 311 | 5.2 | 6.1 | 0.00 | 0.00 | 0.00 | 48 | 998.9 |
| 20260507135531 | 53 | 72 | 1.7 | 1.7 | 0.00 | 0.00 | 0.00 | 52 | 999.0 |
| 20260507135029 | 52 | 132 | 1.7 | 1.7 | 0.00 | 0.00 | 0.00 | 50 | 998.9 |
| 20260507134525 | 52 | 127 | 1.7 | 2.6 | 0.00 | 0.00 | 0.00 | 50 | 998.7 |
| 20260507134021 | 53 | 325 | 3.5 | 4.3 | 0.00 | 0.00 | 0.00 | 53 | 998.8 |
| 20260507133517 | 52 | 71 | 2.6 | 2.6 | 0.00 | 0.00 | 0.00 | 52 | 998.8 |
| 20260507133016 | 51 | 73 | 2.6 | 2.6 | 0.00 | 0.00 | 0.00 | 53 | 998.9 |
| 20260507132512 | 52 | 62 | 4.3 | 6.1 | 0.00 | 0.00 | 0.00 | 55 | 998.8 |
| 20260507132008 | 51 | 78 | 1.7 | 1.7 | 0.00 | 0.00 | 0.00 | 55 | 999.1 |
| 20260507131505 | 51 | 8 | 2.6 | 2.6 | 0.00 | 0.00 | 0.00 | 56 | 999.0 |
| 20260507131002 | 51 | 99 | 2.6 | 2.6 | 0.00 | 0.00 | 0.00 | 57 | 998.9 |
| 20260507130459 | 51 | 314 | 3.5 | 5.2 | 0.00 | 0.00 | 0.00 | 59 | 998.9 |
| 20260507125957 | 51 | 37 | 3.5 | 4.3 | 0.00 | 0.00 | 0.00 | 61 | 998.8 |
| 20260507125455 | 50 | 95 | 1.7 | 1.7 | 0.00 | 0.00 | 0.00 | 62 | 998.9 |
| 20260507124952 | 49 | 102 | 1.7 | 1.7 | 0.00 | 0.00 | 0.00 | 63 | 998.9 |
| 20260507124449 | 49 | 53 | 3.5 | 5.2 | 0.00 | 0.00 | 0.00 | 62 | 998.8 |
| 20260507123947 | 48 | 50 | 0.9 | 1.7 | 0.00 | 0.00 | 0.00 | 65 | 998.8 |
| 20260507123444 | 48 | 55 | 2.6 | 2.6 | 0.00 | 0.00 | 0.00 | 66 | 998.9 |
| 20260507122940 | 48 | 165 | 0.9 | 0.9 | 0.00 | 0.00 | 0.00 | 68 | 998.9 |
| 20260507122436 | 47 | 97 | 1.7 | 2.6 | 0.00 | 0.00 | 0.00 | 69 | 999.1 |
| 20260507121932 | 47 | 81 | 1.7 | 2.6 | 0.00 | 0.00 | 0.00 | 70 | 999.1 |
| 20260507121427 | 47 | 131 | 0.9 | 1.7 | 0.00 | 0.00 | 0.00 | 72 | 999.1 |
| 20260507120924 | 46 | 46 | 4.3 | 5.2 | 0.00 | 0.00 | 0.00 | 72 | 999.0 |
| 20260507120421 | 46 | 128 | 1.7 | 1.7 | 0.00 | 0.00 | 0.00 | 75 | 999.1 |
| 20260507115917 | 45 | 148 | 0.0 | 0.0 | 0.00 | 0.00 | 0.00 | 80 | 999.1 |
| 20260507115413 | 43 | 99 | 0.9 | 0.9 | 0.00 | 0.00 | 0.00 | 89 | 999.0 |
| 20260507114909 | 42 | 180 | 0.0 | 0.0 | 0.00 | 0.00 | 0.00 | 95 | 998.8 |
| 20260507114406 | 41 | 177 | 0.0 | 0.0 | 0.00 | 0.00 | 0.00 | 98 | 998.8 |
| 20260507113903 | 40 | 185 | 0.0 | 0.0 | 0.00 | 0.00 | 0.00 | 99 | 999.1 |
| 20260507113400 | 39 | 184 | 0.0 | 0.0 | 0.00 | 0.00 | 0.00 | 99 | 999.1 |
| 20260507112857 | 39 | 205 | 0.0 | 0.0 | 0.00 | 0.00 | 0.00 | 99 | 999.1 |
| 20260507112355 | 39 | 187 | 0.0 | 0.0 | 0.00 | 0.00 | 0.00 | 99 | 998.9 |
| 20260507111852 | 39 | 182 | 0.0 | 0.0 | 0.00 | 0.00 | 0.00 | 99 | 999.0 |
| 20260507111349 | 38 | 188 | 0.0 | 0.0 | 0.00 | 0.00 | 0.00 | 99 | 998.7 |
| 20260507110845 | 38 | 188 | 0.0 | 0.0 | 0.00 | 0.00 | 0.00 | 99 | 998.8 |
| 20260507110341 | 38 | 185 | 0.0 | 0.0 | 0.00 | 0.00 | 0.00 | 99 | 998.6 |
| 20260507105839 | 38 | 191 | 0.0 | 0.0 | 0.00 | 0.00 | 0.00 | 99 | 998.4 |
| 20260507105335 | 38 | 182 | 0.0 | 0.0 | 0.00 | 0.00 | 0.00 | 99 | 998.6 |
| 20260507104832 | 38 | 185 | 0.0 | 0.0 | 0.00 | 0.00 | 0.00 | 99 | 998.4 |
| 20260507104328 | 38 | 182 | 0.0 | 0.0 | 0.00 | 0.00 | 0.00 | 99 | 998.2 |
| 20260507103824 | 38 | 185 | 0.0 | 0.0 | 0.00 | 0.00 | 0.00 | 99 | 998.2 |
| 20260507103321 | 39 | 176 | 0.0 | 0.0 | 0.00 | 0.00 | 0.00 | 99 | 998.3 |
| 20260507102817 | 39 | 180 | 0.0 | 0.0 | 0.00 | 0.00 | 0.00 | 99 | 998.4 |
| 20260507102314 | 39 | 178 | 0.0 | 0.0 | 0.00 | 0.00 | 0.00 | 99 | 998.3 |
| 20260507101810 | 39 | 185 | 0.0 | 0.0 | 0.00 | 0.00 | 0.00 | 99 | 998.6 |
| 20260507101305 | 39 | 175 | 0.0 | 0.0 | 0.00 | 0.00 | 0.00 | 99 | 998.4 |
| 20260507100803 | 39 | 184 | 0.0 | 0.0 | 0.00 | 0.00 | 0.00 | 99 | 998.4 |
| 20260507100301 | 39 | 175 | 0.9 | 0.9 | 0.00 | 0.00 | 0.00 | 99 | 998.2 |
| 20260507095758 | 39 | 184 | 0.0 | 0.0 | 0.00 | 0.00 | 0.00 | 99 | 998.1 |
| 20260507095254 | 38 | 122 | 0.9 | 0.9 | 0.00 | 0.00 | 0.00 | 99 | 998.2 |
| 20260507094751 | 38 | 190 | 0.0 | 0.0 | 0.00 | 0.00 | 0.00 | 99 | 998.3 |
| 20260507094248 | 37 | 184 | 0.0 | 0.0 | 0.00 | 0.00 | 0.00 | 99 | 998.3 |
| 20260507093745 | 38 | 184 | 0.0 | 0.0 | 0.00 | 0.00 | 0.00 | 99 | 998.2 |
| 20260507093244 | 38 | 187 | 0.0 | 0.0 | 0.00 | 0.00 | 0.00 | 99 | 998.3 |
| 20260507092741 | 38 | 184 | 0.0 | 0.0 | 0.00 | 0.00 | 0.00 | 99 | 998.2 |
| 20260507092237 | 38 | 177 | 0.0 | 0.0 | 0.00 | 0.00 | 0.00 | 99 | 998.1 |
| 20260507091734 | 38 | 177 | 0.0 | 0.0 | 0.00 | 0.00 | 0.00 | 99 | 998.0 |
| 20260507091230 | 38 | 177 | 0.0 | 0.0 | 0.00 | 0.00 | 0.00 | 99 | 998.2 |
| 20260507090726 | 38 | 177 | 0.0 | 0.0 | 0.00 | 0.00 | 0.00 | 99 | 998.0 |
| 20260507090222 | 38 | 177 | 0.0 | 0.0 | 0.00 | 0.00 | 0.00 | 99 | 998.0 |
| 20260507085720 | 38 | 177 | 0.0 | 0.0 | 0.00 | 0.00 | 0.00 | 99 | 998.0 |
| 20260507085217 | 39 | 177 | 0.0 | 0.0 | 0.00 | 0.00 | 0.00 | 99 | 998.2 |
| 20260507084713 | 39 | 177 | 0.0 | 0.0 | 0.00 | 0.00 | 0.00 | 99 | 997.9 |
| 20260507084210 | 39 | 177 | 0.0 | 0.0 | 0.00 | 0.00 | 0.00 | 99 | 998.0 |
| 20260507083708 | 39 | 177 | 0.0 | 0.0 | 0.00 | 0.00 | 0.00 | 99 | 998.0 |
| 20260507083204 | 39 | 176 | 0.0 | 0.0 | 0.00 | 0.00 | 0.00 | 99 | 997.8 |
| 20260507082700 | 39 | 176 | 0.0 | 0.0 | 0.00 | 0.00 | 0.00 | 99 | 997.7 |
| 20260507082156 | 38 | 176 | 0.0 | 0.0 | 0.00 | 0.00 | 0.00 | 99 | 997.8 |
| 20260507081653 | 39 | 176 | 0.0 | 0.0 | 0.00 | 0.00 | 0.00 | 99 | 997.9 |
| 20260507081149 | 39 | 176 | 0.0 | 0.0 | 0.00 | 0.00 | 0.00 | 99 | 997.9 |
| 20260507080646 | 39 | 176 | 0.0 | 0.0 | 0.00 | 0.00 | 0.00 | 99 | 997.7 |
| 20260507080142 | 39 | 176 | 0.0 | 0.0 | 0.00 | 0.00 | 0.00 | 99 | 997.8 |
| 20260507075637 | 39 | 176 | 0.0 | 0.0 | 0.00 | 0.00 | 0.00 | 99 | 997.8 |
| 20260507075133 | 39 | 176 | 0.0 | 0.0 | 0.00 | 0.00 | 0.00 | 99 | 997.8 |
| 20260507074630 | 38 | 176 | 0.0 | 0.0 | 0.00 | 0.00 | 0.00 | 99 | 997.8 |
| 20260507074129 | 39 | 176 | 0.0 | 0.0 | 0.00 | 0.00 | 0.00 | 99 | 997.8 |
| 20260507073625 | 39 | 176 | 0.0 | 0.0 | 0.00 | 0.00 | 0.00 | 99 | 997.8 |
| 20260507073121 | 39 | 176 | 0.0 | 0.0 | 0.00 | 0.00 | 0.00 | 99 | 997.8 |
| 20260507072619 | 40 | 176 | 0.0 | 0.0 | 0.00 | 0.00 | 0.00 | 99 | 997.7 |
| 20260507072116 | 40 | 177 | 0.0 | 0.0 | 0.00 | 0.00 | 0.00 | 99 | 997.7 |
| 20260507071613 | 39 | 176 | 0.0 | 0.0 | 0.00 | 0.00 | 0.00 | 99 | 997.7 |
| 20260507071110 | 39 | 176 | 0.0 | 0.0 | 0.00 | 0.00 | 0.00 | 99 | 997.7 |
| 20260507070607 | 40 | 176 | 0.0 | 0.0 | 0.00 | 0.00 | 0.00 | 99 | 997.8 |
| 20260507070104 | 41 | 176 | 0.0 | 0.0 | 0.00 | 0.00 | 0.00 | 99 | 997.9 |
| 20260507065600 | 40 | 176 | 0.0 | 0.0 | 0.00 | 0.00 | 0.00 | 99 | 997.9 |
| 20260507065057 | 40 | 176 | 0.0 | 0.0 | 0.00 | 0.00 | 0.00 | 99 | 997.6 |
| 20260507064555 | 40 | 176 | 0.0 | 0.0 | 0.00 | 0.00 | 0.00 | 99 | 997.7 |
| 20260507064054 | 41 | 176 | 0.0 | 0.0 | 0.00 | 0.00 | 0.00 | 99 | 997.8 |
| 20260507063550 | 40 | 176 | 0.0 | 0.0 | 0.00 | 0.00 | 0.00 | 99 | 998.0 |
| 20260507063048 | 40 | 176 | 0.0 | 0.0 | 0.00 | 0.00 | 0.00 | 99 | 998.0 |
| 20260507062544 | 41 | 176 | 0.0 | 0.0 | 0.00 | 0.00 | 0.00 | 99 | 998.1 |
| 20260507062041 | 41 | 176 | 0.0 | 0.0 | 0.00 | 0.00 | 0.00 | 99 | 998.0 |
| 20260507061539 | 41 | 176 | 0.0 | 0.0 | 0.00 | 0.00 | 0.00 | 99 | 997.9 |
| 20260507061037 | 41 | 176 | 0.0 | 0.0 | 0.00 | 0.00 | 0.00 | 99 | 998.0 |
| 20260507060535 | 41 | 176 | 0.0 | 0.0 | 0.00 | 0.00 | 0.00 | 99 | 997.8 |
| 20260507060031 | 42 | 176 | 0.0 | 0.0 | 0.00 | 0.00 | 0.00 | 99 | 997.8 |
| 20260507055531 | 41 | 176 | 0.0 | 0.0 | 0.00 | 0.00 | 0.00 | 99 | 997.9 |
| 20260507055028 | 42 | 176 | 0.0 | 0.0 | 0.00 | 0.00 | 0.00 | 99 | 998.0 |
| 20260507054524 | 41 | 176 | 0.0 | 0.0 | 0.00 | 0.00 | 0.00 | 99 | 997.9 |
| 20260507054021 | 42 | 176 | 0.0 | 0.0 | 0.00 | 0.00 | 0.00 | 99 | 998.0 |
| 20260507053519 | 42 | 176 | 0.0 | 0.0 | 0.00 | 0.00 | 0.00 | 99 | 998.0 |
| 20260507053018 | 42 | 176 | 0.0 | 0.0 | 0.00 | 0.00 | 0.00 | 99 | 998.1 |
| 20260507052515 | 42 | 176 | 0.0 | 0.0 | 0.00 | 0.00 | 0.00 | 99 | 998.1 |
| 20260507052011 | 43 | 176 | 0.0 | 0.0 | 0.00 | 0.00 | 0.00 | 99 | 998.0 |
| 20260507051509 | 42 | 176 | 0.0 | 0.0 | 0.00 | 0.00 | 0.00 | 99 | 998.1 |
| 20260507051006 | 42 | 176 | 0.0 | 0.0 | 0.00 | 0.00 | 0.00 | 99 | 998.1 |
| 20260507050502 | 42 | 176 | 0.0 | 0.0 | 0.00 | 0.00 | 0.00 | 98 | 997.8 |
| 20260507045959 | 42 | 176 | 0.0 | 0.0 | 0.00 | 0.00 | 0.00 | 98 | 997.9 |
| 20260507045455 | 43 | 176 | 0.0 | 0.0 | 0.00 | 0.00 | 0.00 | 98 | 997.9 |
| 20260507044953 | 42 | 176 | 0.0 | 0.0 | 0.00 | 0.00 | 0.00 | 98 | 998.0 |
| 20260507044450 | 43 | 176 | 0.0 | 0.0 | 0.00 | 0.00 | 0.00 | 97 | 998.0 |
| 20260507043946 | 44 | 176 | 0.0 | 0.0 | 0.00 | 0.00 | 0.00 | 97 | 998.2 |
| 20260507043442 | 43 | 176 | 0.0 | 0.0 | 0.00 | 0.00 | 0.00 | 97 | 998.4 |
| 20260507042938 | 43 | 176 | 0.0 | 0.0 | 0.00 | 0.00 | 0.00 | 97 | 998.0 |
| 20260507042436 | 43 | 176 | 0.0 | 0.0 | 0.00 | 0.00 | 0.00 | 97 | 998.3 |
| 20260507041931 | 44 | 173 | 0.0 | 0.0 | 0.00 | 0.00 | 0.00 | 96 | 998.2 |
| 20260507041428 | 44 | 173 | 0.0 | 0.0 | 0.00 | 0.00 | 0.00 | 96 | 998.2 |
| 20260507040926 | 44 | 182 | 0.0 | 0.0 | 0.00 | 0.00 | 0.00 | 95 | 998.2 |
| 20260507040421 | 44 | 184 | 0.0 | 0.0 | 0.00 | 0.00 | 0.00 | 95 | 998.2 |
| 20260507035917 | 44 | 176 | 0.0 | 0.0 | 0.00 | 0.68 | 0.68 | 95 | 998.2 |
| 20260507035414 | 44 | 176 | 0.0 | 0.0 | 0.00 | 0.68 | 0.68 | 94 | 998.1 |
| 20260507034911 | 44 | 176 | 0.0 | 0.0 | 0.00 | 0.68 | 0.68 | 94 | 998.0 |
| 20260507034407 | 45 | 176 | 0.0 | 0.0 | 0.00 | 0.68 | 0.68 | 93 | 998.1 |
| 20260507033905 | 45 | 176 | 0.0 | 0.0 | 0.00 | 0.68 | 0.68 | 93 | 997.8 |
| 20260507033403 | 45 | 176 | 0.0 | 0.0 | 0.00 | 0.68 | 0.68 | 92 | 997.9 |
| 20260507032900 | 45 | 176 | 0.0 | 0.0 | 0.00 | 0.68 | 0.68 | 92 | 998.1 |
| 20260507032356 | 45 | 176 | 0.0 | 0.0 | 0.00 | 0.68 | 0.68 | 91 | 998.2 |
| 20260507031853 | 45 | 176 | 0.0 | 0.0 | 0.00 | 0.68 | 0.68 | 91 | 998.0 |
| 20260507031350 | 46 | 176 | 0.0 | 0.0 | 0.00 | 0.68 | 0.68 | 91 | 998.2 |
| 20260507030846 | 46 | 176 | 0.0 | 0.0 | 0.00 | 0.68 | 0.68 | 90 | 998.1 |
| 20260507030344 | 46 | 177 | 0.0 | 0.0 | 0.00 | 0.68 | 0.68 | 90 | 998.2 |
| 20260507025840 | 46 | 176 | 0.0 | 0.0 | 0.00 | 0.68 | 0.68 | 89 | 998.0 |
| 20260507025338 | 47 | 176 | 0.0 | 0.0 | 0.00 | 0.68 | 0.68 | 88 | 998.2 |
| 20260507024835 | 47 | 176 | 0.0 | 0.0 | 0.00 | 0.68 | 0.68 | 87 | 998.0 |
| 20260507024333 | 47 | 176 | 0.0 | 0.0 | 0.00 | 0.68 | 0.68 | 87 | 998.0 |
| 20260507023828 | 47 | 176 | 0.0 | 0.0 | 0.00 | 0.68 | 0.68 | 85 | 998.1 |
| 20260507023325 | 48 | 176 | 0.0 | 0.0 | 0.00 | 0.68 | 0.68 | 85 | 997.9 |
| 20260507022822 | 48 | 176 | 0.0 | 0.0 | 0.00 | 0.68 | 0.68 | 84 | 998.0 |
| 20260507022318 | 48 | 176 | 0.0 | 0.0 | 0.00 | 0.68 | 0.68 | 83 | 997.9 |
| 20260507021809 | 48 | 176 | 0.0 | 0.0 | 0.00 | 0.68 | 0.68 | 82 | 998.0 |
| 20260507021305 | 49 | 176 | 0.0 | 0.0 | 0.00 | 0.68 | 0.68 | 81 | 997.7 |
| 20260507020803 | 49 | 176 | 0.0 | 0.0 | 0.00 | 0.68 | 0.68 | 80 | 997.8 |
| 20260507020259 | 50 | 176 | 0.0 | 0.0 | 0.00 | 0.68 | 0.68 | 77 | 997.7 |
| 20260507015757 | 50 | 176 | 0.0 | 0.0 | 0.00 | 0.68 | 0.68 | 77 | 997.8 |
| 20260507015254 | 51 | 176 | 0.0 | 0.0 | 0.00 | 0.68 | 0.68 | 77 | 997.6 |
| 20260507014751 | 51 | 176 | 0.0 | 0.0 | 0.00 | 0.68 | 0.68 | 74 | 997.7 |
| 20260507014247 | 51 | 176 | 0.0 | 0.0 | 0.00 | 0.68 | 0.68 | 74 | 997.6 |
| 20260507013744 | 51 | 176 | 0.0 | 0.0 | 0.00 | 0.68 | 0.68 | 73 | 997.7 |
| 20260507013241 | 52 | 176 | 0.0 | 0.0 | 0.00 | 0.68 | 0.68 | 72 | 997.5 |
| 20260507012738 | 52 | 176 | 0.0 | 0.0 | 0.00 | 0.68 | 0.68 | 72 | 997.6 |
| 20260507012234 | 53 | 176 | 0.0 | 0.0 | 0.00 | 0.68 | 0.68 | 67 | 997.6 |
| 20260507011732 | 53 | 177 | 0.0 | 0.0 | 0.00 | 0.68 | 0.68 | 65 | 997.2 |
| 20260507011228 | 53 | 240 | 0.0 | 0.0 | 0.00 | 0.68 | 0.68 | 65 | 997.3 |
| 20260507010727 | 54 | 179 | 0.0 | 0.0 | 0.00 | 0.68 | 0.68 | 64 | 997.3 |
| 20260507010224 | 54 | 168 | 0.0 | 0.0 | 0.00 | 0.68 | 0.68 | 64 | 997.1 |
| 20260507005722 | 54 | 164 | 0.9 | 0.9 | 0.00 | 0.68 | 0.68 | 63 | 997.2 |
| 20260507005218 | 54 | 177 | 0.0 | 0.0 | 0.00 | 0.68 | 0.68 | 63 | 997.3 |
| 20260507004714 | 55 | 173 | 0.0 | 0.0 | 0.00 | 0.68 | 0.68 | 63 | 997.3 |
| 20260507004212 | 55 | 136 | 1.7 | 2.6 | 0.00 | 0.68 | 0.68 | 62 | 997.2 |
| 20260507003708 | 55 | 168 | 0.0 | 0.9 | 0.00 | 0.68 | 0.68 | 64 | 997.1 |
| 20260507003203 | 56 | 140 | 0.9 | 0.9 | 0.00 | 0.68 | 0.68 | 62 | 997.1 |
| 20260507002700 | 56 | 81 | 2.6 | 4.3 | 0.00 | 0.68 | 0.68 | 62 | 997.1 |
| 20260507002156 | 56 | 156 | 0.9 | 0.9 | 0.00 | 0.68 | 0.68 | 62 | 996.9 |
| 20260507001652 | 57 | 98 | 2.6 | 2.6 | 0.00 | 0.68 | 0.68 | 62 | 997.1 |
| 20260507001150 | 57 | 70 | 0.9 | 1.7 | 0.00 | 0.68 | 0.68 | 62 | 996.9 |
| 20260507000646 | 57 | 72 | 1.7 | 2.6 | 0.00 | 0.68 | 0.68 | 61 | 997.0 |
| 20260507000142 | 57 | 157 | 0.0 | 0.9 | 0.00 | 0.68 | 0.68 | 61 | 996.9 |
| 20260506235639 | 58 | 159 | 1.7 | 1.7 | 0.00 | 0.68 | 0.68 | 60 | 996.6 |
| 20260506235139 | 58 | 168 | 0.9 | 0.9 | 0.00 | 0.68 | 0.68 | 60 | 996.9 |
| 20260506234637 | 57 | 158 | 0.0 | 0.9 | 0.00 | 0.68 | 0.68 | 59 | 996.7 |
| 20260506234134 | 57 | 81 | 0.9 | 1.7 | 0.00 | 0.68 | 0.68 | 59 | 996.7 |
| 20260506233631 | 57 | 178 | 0.0 | 0.9 | 0.00 | 0.68 | 0.68 | 61 | 996.6 |
| 20260506233128 | 57 | 48 | 3.5 | 6.1 | 0.00 | 0.68 | 0.68 | 58 | 996.5 |
| 20260506232624 | 58 | 124 | 2.6 | 2.6 | 0.00 | 0.68 | 0.68 | 58 | 996.5 |
| 20260506232119 | 58 | 176 | 0.0 | 0.0 | 0.00 | 0.68 | 0.68 | 59 | 996.5 |
| 20260506231617 | 59 | 158 | 0.9 | 0.9 | 0.00 | 0.68 | 0.68 | 58 | 996.4 |
| 20260506231115 | 58 | 36 | 1.7 | 2.6 | 0.00 | 0.68 | 0.68 | 57 | 996.3 |
| 20260506230612 | 58 | 155 | 1.7 | 1.7 | 0.00 | 0.68 | 0.68 | 57 | 996.2 |
| 20260506230109 | 58 | 31 | 3.5 | 4.3 | 0.00 | 0.68 | 0.68 | 55 | 996.1 |
| 20260506225605 | 58 | 78 | 2.6 | 2.6 | 0.00 | 0.68 | 0.68 | 56 | 996.0 |
| 20260506225101 | 58 | 88 | 2.6 | 2.6 | 0.00 | 0.68 | 0.68 | 57 | 996.0 |
| 20260506224558 | 58 | 39 | 1.7 | 1.7 | 0.00 | 0.68 | 0.68 | 57 | 996.2 |
| 20260506224055 | 58 | 134 | 0.9 | 1.7 | 0.00 | 0.68 | 0.68 | 57 | 996.2 |
| 20260506223551 | 58 | 153 | 0.9 | 1.7 | 0.00 | 0.68 | 0.68 | 56 | 996.1 |
| 20260506223047 | 58 | 48 | 3.5 | 4.3 | 0.00 | 0.68 | 0.68 | 55 | 996.2 |
| 20260506222544 | 58 | 38 | 2.6 | 2.6 | 0.00 | 0.68 | 0.68 | 55 | 996.3 |
| 20260506222041 | 58 | 4 | 4.3 | 5.2 | 0.00 | 0.68 | 0.68 | 56 | 996.4 |
| 20260506221538 | 59 | 90 | 2.6 | 4.3 | 0.00 | 0.68 | 0.68 | 56 | 996.6 |
| 20260506221036 | 59 | 46 | 0.9 | 1.7 | 0.00 | 0.68 | 0.68 | 56 | 996.3 |
| 20260506220532 | 59 | 42 | 3.5 | 4.3 | 0.00 | 0.68 | 0.68 | 56 | 996.5 |
| 20260506220028 | 59 | 56 | 2.6 | 4.3 | 0.00 | 0.68 | 0.68 | 55 | 996.4 |
| 20260506215525 | 58 | 48 | 1.7 | 2.6 | 0.00 | 0.68 | 0.68 | 55 | 996.5 |
| 20260506215020 | 59 | 76 | 2.6 | 4.3 | 0.00 | 0.68 | 0.68 | 54 | 996.8 |
| 20260506214518 | 59 | 163 | 0.9 | 0.9 | 0.00 | 0.68 | 0.68 | 53 | 996.8 |
| 20260506214015 | 59 | 346 | 3.5 | 4.3 | 0.00 | 0.68 | 0.68 | 54 | 996.6 |